Location: Artiguedieu
(43.5000°N, 0.5454°E)
Time: 09:21:01
(UTC+00:00)

Explorer 7 - Pass Details

Date: 01 August 2021
Orbit: 484 x 676 km, 50.3° (Epoch: 22 September)

Event Time Altitude Azimuth Distance (km) Brightness Sun altitude
Rises 06:53:18 0° 274° (W) 2,583 9.7 21.0°
Reaches altitude 10° 06:55:36 10° 284° (WNW) 1,722 8.9 21.4°
Maximum altitude 06:59:10 34° 350° (N) 883 8.0 22.1°
Drops below altitude 10° 07:02:56 10° 57° (ENE) 1,815 10.6 22.8°
Sets 07:05:25 0° 66° (ENE) 2,747 11.6 23.2°
